BEIDOU-3 M19

Last updated on Mon Feb 13 2023 00:03:21 GMT+0000 (Coordinated Universal Time)

1 44864U 19090A 23042.89680962 -.00000005 00000+0 00000+0 0 9998 2 44864 55.5633 103.5133 0018020 270.0276 88.7640 1.86231724 21488
UTC large
Height (km)
Speed (km/s)
/
Latitude / Longitude
Inclination (degrees)
Orbital Period (minutes)
Azimuth
Elevation
Range (km)
Doppler Factor

Next 0 passes for location: London (51.5072 / 0.1276)

Sorry there are no passes over London.